Denver, CO

8:16 AM MDT on March 24, 2017 (GMT -0600)
Front Range

Weather History for KFTG - December, 2011

Change the Weather History Date:

Saturday, December 31, 2011

  Actual Average (KDEN) Record (KDEN)
Temperature  
Mean Temperature 36 °F -  
Max Temperature 46 °F 40 °F 66 °F (2005)
Min Temperature 26 °F 12 °F -19 °F (1900)
Degree Days  
Heating Degree Days 29    
Moisture  
Dew Point 16 °F    
Average Humidity 46    
Maximum Humidity 81    
Minimum Humidity 25    
Precipitation  
Precipitation 0.00 in - - ()
Sea Level Pressure  
Sea Level Pressure 29.89 in    
Wind  
Wind Speed 18 mph (WNW)    
Max Wind Speed 40 mph    
Max Gust Speed 60 mph    
Visibility 10 miles    
Events      
Averages and records for this station are not official NWS values.
T = Trace of Precipitation, MM = Missing Value Source: NWS Daily Summary

Daily Weather History Graph

Daily Weather History Graph

Search for Another Location

Airport or City:

Trip Planner

Search our weather history database for the weather conditions in past years. The results will help you decide how hot, cold, wet, or windy it might be!

Date:

Astronomy

Dec. 31, 2011 Rise Set
Actual Time 7:19 AM MST 4:43 PM MST
Civil Twilight 6:48 AM MST 5:13 PM MST
Nautical Twilight 6:15 AM MST 5:47 PM MST
Astronomical Twilight 5:42 AM MST 6:20 PM MST
Moon 11:06 AM MST (12/31) No Moon Set
Length of Visible Light 10h 24m
Length of Day
9h 23m
Waxing Crescent, 45% of the Moon is Illuminated
Dec 31
Waxing Crescent
Dec 31
First Quarter
Jan 9
Full
Jan 16
Last Quarter
Jan 23
New

Hourly Weather History & Observations

Time (MST) Temp. Windchill Dew Point Humidity Pressure Visibility Wind Dir Wind Speed Gust Speed Precip Events Conditions
12:03 AM 35.6 °F 28.6 °F 23.0 °F 60% 29.73 in 10.0 mi South 9.2 mph - N/A   Clear
12:23 AM 37.4 °F 28.9 °F 23.0 °F 56% 29.71 in 10.0 mi South 13.8 mph - N/A   Clear
1:04 AM 35.6 °F 29.2 °F 23.0 °F 60% 29.70 in 10.0 mi South 8.1 mph - N/A   Clear
1:44 AM 39.2 °F 32.0 °F 23.0 °F 52% 29.67 in 10.0 mi South 11.5 mph - N/A   Clear
2:43 AM 37.4 °F 29.3 °F 23.0 °F 56% 29.66 in 10.0 mi South 12.7 mph - N/A   Clear
3:24 AM 41.0 °F 32.8 °F 23.0 °F 49% 29.63 in 10.0 mi South 16.1 mph - N/A   Clear
3:44 AM 41.0 °F 32.8 °F 21.2 °F 45% 29.62 in 10.0 mi SSW 16.1 mph - N/A   Clear
4:04 AM 41.0 °F 33.1 °F 21.2 °F 45% 29.61 in 10.0 mi South 15.0 mph - N/A   Clear
4:24 AM 41.0 °F 32.5 °F 21.2 °F 45% 29.60 in 10.0 mi SSW 17.3 mph 21.9 mph N/A   Clear
4:44 AM 44.6 °F 37.4 °F 17.6 °F 34% 29.60 in 10.0 mi SSW 16.1 mph 25.3 mph N/A   Clear
5:04 AM 41.0 °F 34.7 °F 19.4 °F 42% 29.60 in 10.0 mi SW 10.4 mph - N/A   Clear
5:24 AM 42.8 °F 36.6 °F 15.8 °F 34% 29.59 in 10.0 mi SW 11.5 mph - N/A   Clear
5:43 AM 42.8 °F 38.0 °F 12.2 °F 29% 29.60 in 10.0 mi West 8.1 mph - N/A   Clear
6:03 AM 44.6 °F 36.6 °F 12.2 °F 27% 29.60 in 10.0 mi West 19.6 mph 26.5 mph N/A   Clear
6:24 AM 46.4 °F 38.7 °F 12.2 °F 25% 29.59 in 10.0 mi West 20.7 mph 33.4 mph N/A   Clear
6:43 AM 44.6 °F 36.4 °F 14.0 °F 29% 29.61 in 10.0 mi WNW 20.7 mph 24.2 mph N/A   Clear
7:04 AM 44.6 °F 35.1 °F 14.0 °F 29% 29.62 in 10.0 mi WNW 27.6 mph 39.1 mph N/A   Clear
7:24 AM 37.4 °F 26.1 °F 28.4 °F 70% 29.66 in 10.0 mi North 24.2 mph 29.9 mph N/A   Clear
7:44 AM 33.8 °F 22.2 °F 28.4 °F 81% 29.70 in 10.0 mi NNW 20.7 mph 27.6 mph N/A   Mostly Cloudy
8:04 AM 33.8 °F 21.0 °F 26.6 °F 75% 29.71 in 10.0 mi NNW 25.3 mph 32.2 mph N/A   Overcast
8:24 AM 33.8 °F 23.9 °F 26.6 °F 75% 29.74 in 10.0 mi North 15.0 mph - N/A   Overcast
8:44 AM 37.4 °F 23.3 °F 19.4 °F 48% 29.76 in 10.0 mi WNW 40.3 mph 59.8 mph N/A   Mostly Cloudy
9:04 AM 35.6 °F 22.5 °F 19.4 °F 52% 29.80 in 10.0 mi WNW 29.9 mph 40.3 mph N/A   Scattered Clouds
9:24 AM 35.6 °F 22.1 °F 19.4 °F 52% 29.80 in 10.0 mi WNW 32.2 mph 40.3 mph N/A   Scattered Clouds
9:43 AM 35.6 °F 21.9 °F 14.0 °F 41% 29.83 in 10.0 mi West 33.4 mph 55.2 mph N/A   Clear
10:04 AM 35.6 °F 22.7 °F 17.6 °F 48% 29.85 in 10.0 mi West 28.8 mph 34.5 mph N/A   Clear
10:24 AM 37.4 °F 24.8 °F 14.0 °F 38% 29.85 in 10.0 mi West 31.1 mph 38.0 mph N/A   Clear
10:43 AM 37.4 °F 24.4 °F 10.4 °F 33% 29.86 in 10.0 mi West 33.4 mph 41.4 mph N/A   Clear
11:04 AM 37.4 °F 24.4 °F 10.4 °F 33% 29.86 in 10.0 mi West 33.4 mph 40.3 mph N/A   Scattered Clouds
11:24 AM 37.4 °F 23.8 °F 12.2 °F 36% 29.87 in 10.0 mi West 36.8 mph 42.6 mph N/A   Scattered Clouds
11:44 AM 35.6 °F 22.7 °F 12.2 °F 38% 29.89 in 10.0 mi WNW 28.8 mph 43.7 mph N/A   Scattered Clouds
12:23 PM 35.6 °F 22.1 °F 14.0 °F 41% 29.93 in 10.0 mi NW 32.2 mph 47.2 mph N/A   Clear
12:44 PM 37.4 °F 24.4 °F 12.2 °F 36% 29.95 in 10.0 mi NW 33.4 mph 40.3 mph N/A   Clear
1:04 PM 35.6 °F 22.3 °F 12.2 °F 38% 29.97 in 10.0 mi NW 31.1 mph 41.4 mph N/A   Clear
1:24 PM 35.6 °F 22.1 °F 12.2 °F 38% 29.99 in 10.0 mi NW 32.2 mph 41.4 mph N/A   Clear
1:44 PM 35.6 °F 23.2 °F 14.0 °F 41% 30.01 in 10.0 mi NW 26.5 mph 39.1 mph N/A   Clear
2:04 PM 35.6 °F 23.0 °F 12.2 °F 38% 30.03 in 10.0 mi NW 27.6 mph 38.0 mph N/A   Clear
2:24 PM 35.6 °F 24.5 °F 14.0 °F 41% 30.04 in 10.0 mi NW 20.7 mph 27.6 mph N/A   Clear
2:43 PM 35.6 °F 24.2 °F 12.2 °F 38% 30.06 in 10.0 mi WNW 21.9 mph 27.6 mph N/A   Clear
3:04 PM 35.6 °F 24.2 °F 12.2 °F 38% 30.09 in 10.0 mi WNW 21.9 mph 32.2 mph N/A   Clear
3:23 PM 35.6 °F 23.0 °F 12.2 °F 38% 30.10 in 10.0 mi WNW 27.6 mph 31.1 mph N/A   Clear
3:43 PM 33.8 °F 23.2 °F 14.0 °F 44% 30.12 in 10.0 mi WNW 17.3 mph 31.1 mph N/A   Clear
4:04 PM 33.8 °F 21.9 °F 12.2 °F 41% 30.12 in 10.0 mi WNW 21.9 mph 28.8 mph N/A   Clear
4:24 PM 32.0 °F 19.5 °F 10.4 °F 41% 30.14 in 10.0 mi WNW 21.9 mph - N/A   Clear
4:44 PM 32.0 °F 21.6 °F 10.4 °F 41% 30.16 in 10.0 mi WNW 15.0 mph 26.5 mph N/A   Clear
5:04 PM 30.2 °F 20.2 °F 12.2 °F 47% 30.17 in 10.0 mi NW 12.7 mph - N/A   Clear
5:24 PM 30.2 °F 21.3 °F 14.0 °F 51% 30.18 in 10.0 mi NW 10.4 mph - N/A   Clear
5:44 PM 28.4 °F 19.7 °F 14.0 °F 55% 30.20 in 10.0 mi NNW 9.2 mph - N/A   Clear
6:03 PM 28.4 °F 20.4 °F 14.0 °F 55% 30.21 in 10.0 mi NNW 8.1 mph - N/A   Clear
6:24 PM 28.4 °F 19.7 °F 12.2 °F 51% 30.23 in 10.0 mi NNW 9.2 mph - N/A   Clear
6:44 PM 28.4 °F 19.1 °F 12.2 °F 51% 30.24 in 10.0 mi NNW 10.4 mph - N/A   Clear
7:04 PM 28.4 °F 18.5 °F 12.2 °F 51% 30.26 in 10.0 mi North 11.5 mph - N/A   Clear
7:24 PM 28.4 °F 19.1 °F 14.0 °F 55% 30.28 in 10.0 mi North 10.4 mph - N/A   Clear
7:44 PM 26.6 °F 17.5 °F 14.0 °F 59% 30.29 in 10.0 mi NNE 9.2 mph - N/A   Clear
8:04 PM 26.6 °F 17.5 °F 14.0 °F 59% 30.29 in 10.0 mi NNE 9.2 mph - N/A   Clear
8:24 PM 26.6 °F 19.1 °F 12.2 °F 55% 30.30 in 10.0 mi North 6.9 mph - N/A   Clear
8:44 PM 26.6 °F 19.1 °F 14.0 °F 59% 30.30 in 10.0 mi NNE 6.9 mph - N/A   Clear
9:04 PM 26.6 °F 22.6 °F 12.2 °F 55% 30.31 in 10.0 mi NE 3.5 mph - N/A   Clear
9:23 PM 26.6 °F - 10.4 °F 51% 30.31 in 10.0 mi Calm Calm - N/A   Clear
9:44 PM 26.6 °F - 10.4 °F 51% 30.31 in 10.0 mi Calm Calm - N/A   Clear
10:03 PM 21.2 °F 14.9 °F 12.2 °F 68% 30.31 in 10.0 mi SSE 4.6 mph - N/A   Clear
10:24 PM 21.2 °F 13.6 °F 14.0 °F 74% 30.31 in 10.0 mi ESE 5.8 mph - N/A   Clear
10:44 PM 19.4 °F 14.3 °F 12.2 °F 74% 30.31 in 10.0 mi South 3.5 mph - N/A   Clear
11:03 PM 21.2 °F 12.6 °F 14.0 °F 74% 30.32 in 10.0 mi SSE 6.9 mph - N/A   Clear
11:24 PM 21.2 °F 11.7 °F 14.0 °F 74% 30.33 in 10.0 mi South 8.1 mph - N/A   Clear
11:44 PM 21.2 °F 10.9 °F 12.2 °F 68% 30.31 in 10.0 mi South 9.2 mph - N/A   Clear